Location: Marquette
(46.5440°N, 87.3950°W)
Time: 11:46:03
(UTC-04:00)

Daily predictions for brighter satellites

Satellite Brightness Start Highest point End
(mag) Time Altitude Azimuth Time Altitude Azimuth Time Altitude Azimuth
NOSS 3-1 (A) 3.8 22:16:38 10° S 22:22:07 42° ESE 22:28:11 10° NE
SPOT 1/Viking Rocket 4.1 22:18:51 10° SE 22:23:44 45° ENE 22:28:39 10° N
Cosmos 2315 Rocket 4.0 22:18:58 10° N 22:25:13 81° E 22:31:25 10° S
Cosmos 1707 Rocket 3.7 22:21:04 10° N 22:25:24 61° ENE 22:29:44 10° SSE
H-2A R/B 2.7 22:21:56 10° S 22:26:25 62° WSW 22:30:55 10° NNW
Cosmos 1437 3.1 22:25:09 10° SSW 22:28:26 72° W 22:31:44 10° N
SL-14 R/B 3.9 22:24:45 10° SSE 22:28:27 39° E 22:32:14 10° NNE
Meteor 1-27 4.3 22:23:39 10° N 22:29:21 71° ENE 22:34:56 10° SSE
Cosmos 2150 Rocket 4.5 22:24:19 10° S 22:29:28 45° ESE 22:34:40 10° NNE
YAOGAN 6 2.9 22:28:10 10° SSE 22:31:43 53° ENE 22:35:13 10° N
Cosmos 1666 Rocket 3.9 22:27:57 10° SSE 22:32:10 47° E 22:36:26 10° NNE
Cosmos 1674 3.8 22:28:43 10° SSW 22:32:27 48° WNW 22:36:15 10° N
Terra 3.4 22:31:49 10° ESE 22:35:27 22° ENE 22:39:05 10° NNE
SL-08 RB Rocket 4.4 22:33:12 10° SE 22:37:22 39° ENE 22:41:34 10° N
ATLAS 2AS CENTAUR R/B 3.7 22:38:24 10° SSE 22:44:41 30° ESE 22:51:22 10° NE
Cosmos 1300 2.8 22:41:22 10° NNW 22:45:14 79° W 22:49:04 10° S
Cosmos 2227 Rocket 3.1 22:41:18 10° SSE 22:46:06 30° ESE 22:50:58 10° NE
NOSS 0 Rocket 4.1 22:41:27 10° NNW 22:47:37 70° ENE 22:53:27 11° SE
ERBS 3.5 22:45:15 10° S 22:48:08 24° SE 22:50:59 10° ENE
CZ-4 SHROUD 3.9 22:46:10 10° S 22:49:14 53° W 22:52:20 10° NNW
Tiangong 1 1.9 22:46:35 10° SW 22:49:22 30° SSE 22:52:08 10° ESE
Envisat 3.9 22:47:43 10° S 22:52:36 47° W 22:57:31 10° NNW
ATLAS 3B R/B 3.4 22:45:43 10° NNW 22:52:37 47° NE 22:59:03 10° ESE
MetOp-A 4.4 22:52:20 10° S 22:57:40 68° WSW 23:03:01 10° NNW
Cosmos 1745 Rocket 4.2 22:52:52 10° SSE 22:58:49 51° E 23:04:46 10° NNE
SL-16 R/B 3.4 22:54:16 10° NNW 22:59:24 33° NE 23:04:25 10° ESE
Lacrosse 4 Rocket 3.0 22:55:56 10° NNW 22:59:47 28° NE 23:03:41 10° ESE
USA 32 4.1 22:54:31 10° N 22:59:48 70° E 23:04:53 11° SSE
Meteor 1-11 4.3 22:54:04 10° S 22:59:50 88° W 23:05:35 10° N
Cosmos 2333 Rocket 2.3 22:56:45 10° NNW 23:02:33 76° ENE 23:07:32 14° SSE
CZ-4 R/B 4.0 23:00:06 10° NNE 23:04:58 56° E 23:09:42 10° S
Cosmos 2058 3.7 23:01:10 10° SSW 23:05:10 53° WNW 23:09:12 10° N
NOSS 3-1 (C) 3.6 23:01:30 10° SW 23:07:28 83° NW 23:14:11 10° NE
Cosmos 1455 2.8 23:03:49 10° N 23:07:29 43° ENE 23:10:08 17° SE
ARGOS 3.2 23:03:30 11° SSE 23:08:46 89° WSW 23:14:11 10° NNW
Cosmos 1937 Rocket 3.4 23:06:33 10° SSW 23:11:45 72° ESE 23:16:56 10° NNE
Cosmos 2297 Rocket 2.9 23:07:58 11° SSE 23:12:42 34° ESE 23:17:44 10° NE
COSMOS 2455 3.4 23:06:58 10° NNW 23:12:51 51° NE 23:17:55 14° ESE
Cosmos 2219 Rocket 2.4 23:08:31 10° NNW 23:14:06 71° WSW 23:18:54 14° SSE
COSMOS 2428 3.9 23:09:00 10° NW 23:14:10 37° WSW 23:19:20 10° S
Cosmos 1726 3.2 23:11:15 10° NNW 23:14:52 44° W 23:18:29 10° SSW
Cosmos 192 4.5 23:13:11 10° NNW 23:18:06 65° ENE 23:21:44 18° SE
Cosmos 990 Rocket 4.0 23:14:14 10° S 23:19:16 60° ESE 23:24:21 10° NNE
Sich 1 3.6 23:19:05 10° SSW 23:23:25 58° W 23:27:47 10° N
Cosmos 1862 Rocket 3.5 23:20:11 10° N 23:24:32 70° E 23:27:33 19° SSE
Cosmos 2242 Rocket 4.3 23:23:23 10° NNW 23:27:44 51° W 23:31:58 11° S
Meteor 2-10 4.4 23:22:15 10° NNW 23:27:58 74° W 23:33:01 13° S
Meteor 1-4 Rocket 3.7 23:24:29 10° NNW 23:28:01 41° W 23:31:14 12° SSW
CZ-4B R/B 3.9 23:22:46 10° N 23:28:02 70° WNW 23:33:10 10° SSW
CARTOSAT-1 3.7 23:25:07 19° SSE 23:28:05 64° ENE 23:32:23 10° N
Cosmos 1633 Rocket 3.8 23:25:40 10° SSW 23:29:56 52° WNW 23:34:14 10° N
Cosmos 1980 3.9 23:31:09 10° NNW 23:36:46 65° WSW 23:40:54 18° S
CZ-4C R/B 4.1 23:33:44 10° NNW 23:39:45 33° NNE 23:46:21 10° E
Cosmos 1869 3.3 23:38:23 10° N 23:42:28 90° NNE 23:44:53 24° S
Cosmos 1269 Rocket 4.1 23:37:46 10° NNW 23:43:06 69° ENE 23:46:29 23° SE
IGS 5A 3.4 23:43:40 24° SSE 23:46:09 85° ENE 23:50:21 10° NNW
SeaSat 1 3.9 23:43:30 11° ESE 23:47:24 28° NE 23:51:34 10° N
FALCON 9 R/B 4.1 23:24:10 10° W 23:48:32 46° SSW 23:54:02 19° SE
Cosmos 2237 Rocket 2.6 23:43:09 10° NNW 23:48:44 57° WSW 23:52:39 20° S
Cosmos 1271 Rocket 4.5 23:45:41 10° NW 23:48:58 27° W 23:52:14 10° SSW
H-2A R/B 2.3 23:46:30 19° S 23:50:24 76° WSW 23:55:53 10° NNW
Cosmos 1869 Rocket 4.3 23:53:42 26° SE 23:55:32 37° E 23:59:40 10° NNE
